Terug naar catalogus

INTELSAT 32E

ActiefCommunicatieGEO
NORAD 41945·PAYLOAD· XX

Gelanceerd Feb 14, 2017 vanaf Guiana Space Centre

Loading…

TLE

VersSource: CelesTrak SupGP

Epoch: Sep 14, 2026, 00:00 UTC

1 41945C 17007B   26257.00000000 -.00000179  00000+0  00000+0 0  2573
2 41945   0.0291 257.7476 0000643 179.7196 232.3595  1.00271112    13

Volg INTELSAT 32E in realtime met AllMySat

Download on the App Store